EW7890 Hamilton BM current weather conditions

sailwx.info

Wind from 324

Air temperature 22.2° C
Dewpoint 12.7° C

Last reported at 2018-Oct-22 14:30 UTC.
Time now 2018-Oct-22 15:06 UTC

Location: N 32°18' W 064°46'.
View on Google Maps.

See reports from other nearby stations

  
Tides and Currents Weather Stations Pressure Air Temp Water Temp Dewpoint Dewpoint Depression Visibility Wind Speed Wind Dir Waves Ship Positions
date/time (UTC)wind fromknots sea level pressurealtimeterstation pressurevisibilityair tempwater tempwave heightnotes
2018-Oct-22 14:30 324 22.2
2018-Oct-22 14:15 248 0 gusting 5 22.2
2018-Oct-22 14:00 314 22.2
2018-Oct-22 13:45 323 0 gusting 7 22.2
2018-Oct-22 13:30 202 0 gusting 5 22.2
2018-Oct-22 13:15 238 1 gusting 8 22.2
2018-Oct-22 13:00 053 0 gusting 4 22.2
2018-Oct-22 12:46 315 0 gusting 6 21.7
2018-Oct-22 12:33 070 0 gusting 8 21.7
2018-Oct-22 12:15 075 21.7
2018-Oct-22 12:01 301 1 gusting 5 21.1
2018-Oct-22 11:46 325 21.1
2018-Oct-22 11:30 075 1 gusting 6 21.1
2018-Oct-22 11:16 129 0 gusting 6 21.1
2018-Oct-22 11:01 311 21.1
2018-Oct-22 10:46 359 21.1
2018-Oct-22 10:16 285 0 gusting 4 21.1
2018-Oct-22 10:01 278 21.1
2018-Oct-22 09:46 322 21.1
2018-Oct-22 09:31 284 21.1
2018-Oct-22 09:15 281 0 gusting 3 21.1
2018-Oct-22 09:00 247 21.1
2018-Oct-22 08:46 043 0 gusting 5 21.1
2018-Oct-22 08:30 047 0 gusting 6 21.1
2018-Oct-22 08:15 122 21.1
2018-Oct-22 08:00 043 0 gusting 5 21.1
2018-Oct-22 07:45 327 0 gusting 6 21.1
2018-Oct-22 07:30 332 0 gusting 4 21.1
2018-Oct-22 07:15 233 21.1
2018-Oct-22 07:00 090 21.1
2018-Oct-22 06:45 278 21.1
2018-Oct-22 06:30 355 21.1
2018-Oct-22 06:15 270 0 gusting 6 21.7
2018-Oct-22 06:00 314 0 gusting 4 21.7
2018-Oct-22 05:45 345 1 gusting 7 21.7
2018-Oct-22 05:30 318 0 gusting 5 21.7
2018-Oct-22 05:16 309 1 gusting 5 22.2
2018-Oct-22 05:01 326 0 gusting 5 22.2
2018-Oct-22 04:46 272 0 gusting 6 21.7
2018-Oct-22 04:31 302 1 gusting 7 21.7
2018-Oct-22 04:17 292 21.7
2018-Oct-22 04:01 140 0 gusting 6 21.7
2018-Oct-22 03:46 323 0 gusting 4 21.7
2018-Oct-22 03:32 255 0 gusting 4 21.7
2018-Oct-22 03:16 111 0 gusting 5 21.7
2018-Oct-22 03:01 260 0 gusting 8 21.1
2018-Oct-22 02:46 032 0 gusting 6 21.1
2018-Oct-22 02:30 286 0 gusting 6 20.6
2018-Oct-22 02:16 203 20.6
2018-Oct-22 02:01 029 0 gusting 4 20.6
2018-Oct-22 01:46 329 0 gusting 5 20.6
2018-Oct-22 01:31 265 0 gusting 5 20.6
2018-Oct-22 01:15 311 0 gusting 4 21.1
2018-Oct-22 01:01 279 21.7
2018-Oct-22 00:45 338 21.7
2018-Oct-22 00:31 314 21.7
2018-Oct-22 00:15 283 21.7
2018-Oct-22 00:00 321 22.2
2018-Oct-21 23:45 005 22.2
2018-Oct-21 23:31 302 22.2
2018-Oct-21 23:16 304 22.2
2018-Oct-21 23:00 252 0 gusting 6 22.8
2018-Oct-21 22:46 300 0 gusting 4 24.4
2018-Oct-21 22:30 136 25.0
2018-Oct-21 22:15 236 25.0
2018-Oct-21 22:00 123 25.0
2018-Oct-21 21:45 155 25.0
2018-Oct-21 21:30 293 25.0
2018-Oct-21 21:15 262 25.0
2018-Oct-21 21:00 152 0 gusting 3 25.0
2018-Oct-21 20:45 250 25.0
2018-Oct-21 20:30 083 25.6
2018-Oct-21 20:15 301 0 gusting 6 25.6
2018-Oct-21 20:00 149 25.6
2018-Oct-21 19:45 115 0 gusting 5 26.1
2018-Oct-21 19:30 213 0 gusting 7 26.1
2018-Oct-21 19:15 126 26.1
2018-Oct-21 18:45 217 0 gusting 4 26.1
2018-Oct-21 18:30 238 0 gusting 9 26.7
2018-Oct-21 18:15 288 26.7
2018-Oct-21 18:00 159 27.2
2018-Oct-21 17:46 281 1 gusting 6 26.7
2018-Oct-21 17:31 263 0 gusting 5 26.7
2018-Oct-21 17:17 285 0 gusting 3 26.7
2018-Oct-21 17:01 135 0 gusting 5 27.2
2018-Oct-21 16:47 165 0 gusting 5 27.2
2018-Oct-21 16:31 225 0 gusting 4 27.2
2018-Oct-21 16:17 205 0 gusting 6 27.2
2018-Oct-21 16:01 098 0 gusting 3 27.2
2018-Oct-21 15:45 224 27.2
2018-Oct-21 15:31 198 27.2
2018-Oct-21 15:16 172 0 gusting 5 26.7
2018-Oct-21 15:01 102 0 gusting 6 26.7
2018-Oct-21 14:46 276 26.7
2018-Oct-21 14:30 127 26.7
2018-Oct-21 14:15 313 0 gusting 5 26.7
2018-Oct-21 14:00 140 26.7
2018-Oct-21 13:45 198 26.1
2018-Oct-21 13:31 134 0 gusting 5 26.1
2018-Oct-21 13:15 248 26.1
2018-Oct-21 13:00 243 25.6
2018-Oct-21 12:45 184 25.0
2018-Oct-21 12:30 236 0 gusting 4 25.0
2018-Oct-21 12:15 139 24.4
2018-Oct-21 12:00 124 23.9
2018-Oct-21 11:45 252 23.9
2018-Oct-21 11:30 290 23.3
2018-Oct-21 11:15 185 23.3
2018-Oct-21 11:00 209 22.8
2018-Oct-21 10:45 316 22.8
2018-Oct-21 10:30 231 22.2
2018-Oct-21 10:15 256 22.2
2018-Oct-21 10:00 113 22.2
2018-Oct-21 09:45 190 22.2
2018-Oct-21 09:30 065 22.2
2018-Oct-21 09:15 246 22.2
2018-Oct-21 09:00 091 22.2
2018-Oct-21 08:47 254 22.2
2018-Oct-21 08:31 107 22.2
2018-Oct-21 08:16 155 22.2
2018-Oct-21 08:01 250 22.2
2018-Oct-21 07:46 164 22.2
2018-Oct-21 07:31 108 22.2
2018-Oct-21 07:16 139 21.7
2018-Oct-21 07:01 169 22.2
2018-Oct-21 06:46 126 22.2
2018-Oct-21 06:31 151 22.2
2018-Oct-21 06:16 079 22.2
2018-Oct-21 06:01 143 22.2
2018-Oct-21 05:45 124 22.2
2018-Oct-21 05:31 227 22.2
2018-Oct-21 05:16 227 22.8
2018-Oct-21 05:00 134 22.8
2018-Oct-21 04:46 122 22.8
2018-Oct-21 04:31 190 22.8
2018-Oct-21 04:15 106 22.8
2018-Oct-21 04:00 143 22.8
2018-Oct-21 03:45 139 22.8
2018-Oct-21 03:30 070 22.8
2018-Oct-21 03:15 153 22.8
2018-Oct-21 03:00 266 22.8
2018-Oct-21 02:45 243 22.8
2018-Oct-21 02:30 139 22.8
2018-Oct-21 02:15 127 22.8
2018-Oct-21 02:00 176 22.8
2018-Oct-21 01:45 153 22.8
2018-Oct-21 01:30 169 0 gusting 5 22.8
2018-Oct-21 01:15 240 22.8
2018-Oct-21 01:00 106 22.8
2018-Oct-21 00:45 149 22.8
2018-Oct-21 00:30 193 22.8
2018-Oct-21 00:15 091 22.8
2018-Oct-21 00:00 136 22.2
2018-Oct-20 23:45 182 22.2
2018-Oct-20 23:30 122 22.2
2018-Oct-20 23:15 216 22.2
2018-Oct-20 23:00 110 22.2
2018-Oct-20 22:45 158 22.2
2018-Oct-20 22:30 172 22.2
2018-Oct-20 22:15 103 0 gusting 5 22.2
2018-Oct-20 22:00 159 22.2
2018-Oct-20 21:45 118 22.2
2018-Oct-20 21:30 147 22.2
2018-Oct-20 21:16 167 22.2
2018-Oct-20 21:02 118 0 gusting 4 22.8
2018-Oct-20 20:47 187 22.8
2018-Oct-20 20:32 212 23.3
2018-Oct-20 20:16 117 23.9
2018-Oct-20 20:01 113 0 gusting 3 23.9
2018-Oct-20 19:46 113 24.4
2018-Oct-20 19:33 090 24.4
2018-Oct-20 19:16 226 24.4
2018-Oct-20 19:01 136 0 gusting 4 25.0
2018-Oct-20 18:46 252 0 gusting 5 24.4
2018-Oct-20 18:31 280 0 gusting 4 24.4
2018-Oct-20 18:16 249 0 gusting 11 24.4
2018-Oct-20 18:01 119 1 gusting 6 24.4
2018-Oct-20 17:45 146 1 gusting 6 25.6
2018-Oct-20 17:31 229 0 gusting 5 25.6
2018-Oct-20 17:16 143 25.6
2018-Oct-20 17:00 120 25.0
2018-Oct-20 16:45 113 25.0
2018-Oct-20 16:30 173 0 gusting 6 25.6
2018-Oct-20 16:15 089 0 gusting 4 25.0
2018-Oct-20 16:01 106 0 gusting 4 25.6
2018-Oct-20 15:45 208 25.6
2018-Oct-20 15:30 117 25.6
2018-Oct-20 15:15 201 25.0
2018-Oct-20 15:00 159 24.4